Terminal Aerodrome Forecast
Issued by NWS

Home | Current Version | Previous Version | Graphics & Text | Print | Product List | Glossary On
Versions: 1 2 3 4 5 6 7 8 9 10 11 12 13 14 15 16 17
453
FTUS43 KICT 070934 AAA
TAFSLN
TAF AMD
KSLN 070934Z 0710/0806 VRB03KT P6SM OVC100
     FM071200 05008KT 5SM -SN BR SCT035 OVC060
     FM071500 03012KT 4SM -SN BR SCT025 OVC040
     FM071800 04013KT P6SM -SN VCSH OVC030
     FM080000 34007KT P6SM BKN070
     FM080200 34007KT P6SM SCT080=

USA.gov is the U.S. government's official web portal to all federal, state and local government web resources and services.